Regional Weather Roundup
Issued by NWS Upton, NY

Current Version | Previous Version | Text Only | Print | Product List | Glossary On
Versions: 1 2 3 4 5 6 7 8 9 10 11 12 13 14 15 16 17 18 19 20 21 22 23 24 25 26 27 28 29 30 31 32 33 34 35 36 37 38 39 40 41 42 43 44 45 46 47 48 49 50
652
ASUS41 KOKX 202308
RWROKX

REGIONAL WEATHER ROUNDUP
NATIONAL WEATHER SERVICE NEW YORK NY
600 PM EST MON FEB 20 2017

NOTE: "FAIR" INDICATES FEW OR NO CLOUDS BELOW 12,000 FEET WITH NO
SIGNIFICANT WEATHER AND/OR OBSTRUCTIONS TO VISIBILITY.

NYZ071-072-176-178-NJZ106-104-210000-
NEW YORK CITY METRO AREA

CITY           SKY/WX    TMP DP  RH WIND       PRES   REMARKS
Central Park   CLEAR     49  11  21 NE15G23   30.28R
Wall St Helipt NOT AVBL
LaGuardia APRT PTCLDY    50  15  24 N16       30.25R
Kennedy INTL   PTCLDY    49  13  23 NE16      30.26R
Breezy Point     N/A     50 N/A N/A NW10        N/A
Newark/Liberty PTCLDY    51   5  15 NW14      30.25R
Teterboro      CLEAR     49  11  21 N10G20    30.25R
$$

NYZ177-179-078>081-210000-
LONG ISLAND NEW YORK

CITY           SKY/WX    TMP DP  RH WIND       PRES   REMARKS
Jones Beach      N/A     46 N/A N/A N14         N/A
Matinecock PT  NOT AVBL
Farmingdale    CLEAR     45  13  27 N13       30.26R
MacArthur/ISP  PTCLDY    44  18  35 N12       30.25R
Shirley        CLEAR     42  20  41 N9        30.26R
Westhampton    CLEAR     42  17  36 N8        30.26R
Southampton    NOT AVBL
Bridgehampton  NOT AVBL
East Hampton     N/A     42  19  40 N7        30.24R
Montauk          N/A     43  25  49 N8        30.26R
$$

NYZ052-065-067-210000-
HUDSON VALLEY

CITY           SKY/WX    TMP DP  RH WIND       PRES   REMARKS
White Plains   CLEAR     44   9  23 N12       30.26R
Newburgh       CLEAR     41  16  36 E9        30.28R
Montgomery     CLEAR     41  17  38 NE6       30.27R
Poughkeepsie   CLEAR     39  15  37 N8        30.29R WCI  33
Albany         PTCLDY    37  13  37 NE9       30.35R WCI  30
$$

NJZ001-105-106-008-010-013-015-019>022-104-210000-
NEW JERSEY

CITY           SKY/WX    TMP DP  RH WIND       PRES   REMARKS
Newark/Liberty PTCLDY    51   5  15 NW14      30.25R
Teterboro      CLEAR     49  11  21 N10G20    30.25R
Caldwell       CLEAR     49   6  17 VRB6      30.26R
Somerville     CLEAR     49  10  20 CALM      30.24R
Linden         NOT AVBL
Sussex         CLEAR     45  10  24 N5        30.26R
Andover          N/A     44   8  23 N7        30.26R
Trenton        CLEAR     51  12  21 N7        30.24R
Millville      CLEAR     50  26  39 N7        30.23R
Atlantic City  CLEAR     49  24  37 N7        30.23R
Wrightstown    CLEAR     47  20  34 NW10      30.21R
Toms River     CLEAR     46  23  40 N5        30.24R
Belmar         CLEAR     49  13  23 N10       30.24R
$$

PAZ047>061-062-071-210000-
EASTERN PENNSYLVANIA

CITY           SKY/WX    TMP DP  RH WIND       PRES   REMARKS
Philadelphia   PTCLDY    54  17  23 N14G22    30.24R
Allentown      CLEAR     47  17  30 N10       30.26R
Scranton       CLEAR     42  14  32 N10       30.27R
$$

CTZ002-004>006-009-010-012-RIZ004-006-007-MAZ004-011-015-210000-
SOUTHERN NEW ENGLAND
 IN CT

CITY           SKY/WX    TMP DP  RH WIND       PRES   REMARKS
Bradley INTL   PTCLDY    39  12  33 N10       30.28R WCI  32
Hartford       CLEAR     43  13  29 N7        30.28R
Danbury        CLEAR     40  14  34 N8        30.29R WCI  34
Wtrbury/Oxford CLEAR     39  12  33 N7        30.27R WCI  34
Bridgeport     CLEAR     45  17  32 NW13      30.27R
Meriden        CLEAR     44   9  23 N9G17     30.27R
New Haven      CLEAR     44  11  26 N14G20    30.27R
Chester          N/A     43  16  33 N6        30.25R
Groton         CLEAR     43   8  23 N12       30.25R
Wilimantic     CLEAR     42  11  28 N9        30.27R

 IN RI

CITY           SKY/WX    TMP DP  RH WIND       PRES   REMARKS
Providence     PTCLDY    41  14  33 N10       30.26R
Block Island   CLEAR     38  30  73 E5        30.26R WCI  34
Westerly       CLEAR     44  11  26 N8        30.26R
 IN MA

CITY           SKY/WX    TMP DP  RH WIND       PRES   REMARKS
Boston         PTCLDY    41  16  36 NW10      30.27R
Worcester      CLEAR     36   8  31 N8        30.24R WCI  30
Westfield      CLEAR     38  14  37 N7        30.28R WCI  33
Provincetown   CLEAR     39  26  59 N14       30.25R WCI  31
Nantucket      PTCLDY    36  25  64 N15       30.24R WCI  27
$$

ANZ330-335-338-340-345-350-353-355-210000-
COASTAL MARINE OBSERVATIONS


STATION/POSITION TIME  SKY/WX   TEMP    WIND        PRES    VSBY  WAVE
                                AIR SEA DIR/SP/G                  HT/PER
                 (UTC)          (F)     (DEG/KT/KT) (MB)    (MI)  (FT/S)
NY HARB ENTRANCE 2150            48 43  320/ 10/ 12 1022.4          1/13
20 S FIRE ISLAND 2250            45 42   20/ 14/ 16 1023.4          1/ 8
GREAT SOUTH BAY  NOT AVBL
23 SSW MONTAUK P 2250            44 44              1024.1          2/ 8
15 E BARNEGAT LI 2230               43                N/A           1/ 8
HUDSON CANYON    2150               50              1022.2          4/ 5
KINGS POINT      2230            47 40              1023.8
EXECUTION ROCKS  NOT AVBL
CENTRAL LI SOUND 2215            44     330/ 10/ 14   N/A           1/ 3
EASTERN LI SOUND NOT AVBL
ROBBINS REEF     2230            52     330/ 11/ 13 1024.0
$$


>>>>>>>>>>>>>>>>>>>>>>>>>>>> KEY <<<<<<<<<<<<<<<<<<<<<<<<<<<
>                                                          <
>     SKY/WX - Sky Condition/Present Weather               <
>     TMP    - Temperature in Fahrenheit                   <
>     DP     - Dew Point in Fahrenheit                     <
>     RH     - Relative Humidity in Percent                <
>     WIND   - Direction (from) and Speed in MPH           <
>     PRES   - Mean Sea Level Pressure (inches of Hg)      <
>     WCI    - Wind Chill Index                            <
>     VSB    - VISIBILITY IN MILES                         <
>     HX     - HEAT INDEX                                  <
>     TC     - TEMPERATURE IN CELSIUS                      <
>     VRB    - VARIABLE WIND DIRECTION                     <
>                                                          <
>>>>>>>>>>>>>>>>>>>>>>>>>>>> KEY <<<<<<<<<<<<<<<<<<<<<<<<<<<




USA.gov is the U.S. government's official web portal to all federal, state and local government web resources and services.